Back to catalog

FLOCK 4H 5

AliveScienceSSO
NORAD 66708·PAYLOAD·🇹🇼 Taiwan

Launched Nov 28, 2025 from Vandenberg Space Force Base

Loading…

Next Passes (next 24 hours)

TLE

FreshSource: CelesTrak SupGP

Epoch: Sep 14, 2026, 18:45 UTC

1 66708C 25276AU  26257.78146991 -.00003495  00000+0 -15576-3 0  2572
2 66708  97.4099 330.0959 0001840  75.5657 327.6979 15.21506381    10

Track FLOCK 4H 5 in real time with AllMySat

Download on the App Store